Date String (YYYY-MM-DD hh:mm:ss) UTC,Instrument flags,Ambient pressure (hPa),Sample flow (lpm),Bypass flow (lpm),Sample temperature (°C),Ambient temperature (°C),ASC tube jacket temperature (°C),LED temperature (°C),Box temperature (°C),Sample RH (%),Span deviation,Mass concentration (μg/m³),Mass concentration (μg/m³),Mass concentration (μg/m³)
DateTimeUTC,F1_M11,P_M11,Q1_M11,Q2_M11,T1_M11,T2_M11,T3_M11,T4_M11,T5_M11,U1_M11,ZSPAN_M11,X2_M11,X0_M11,X1_M11
2022-02-19 05:00:00,,0830.7,5.00,0.00,22.0,21.4,00.0,30.9,23.8,09.1,0000.0,0000.87,0001.68,0000.60
2022-02-19 05:01:00,,0830.7,5.00,0.00,22.0,21.4,00.0,30.9,23.8,09.1,0000.0,0000.89,0001.66,0000.63
2022-02-19 05:02:00,,0830.7,4.99,0.00,22.0,21.4,00.0,30.9,23.8,09.1,0000.0,0000.88,0001.63,0000.65
2022-02-19 05:03:00,,0830.7,5.00,0.00,22.0,21.5,00.0,31.0,23.9,09.1,0000.0,0000.89,0001.67,0000.66
2022-02-19 05:04:00,,0830.7,5.00,0.00,22.0,21.5,00.0,31.0,23.9,09.2,0000.0,0000.90,0001.76,0000.67
2022-02-19 05:05:00,,0830.7,5.00,0.00,22.0,21.5,00.0,31.0,23.9,09.4,0000.0,0000.91,0001.72,0000.68
2022-02-19 05:06:00,,0830.7,5.01,0.00,22.1,21.5,00.0,31.0,23.9,09.4,0000.0,0000.92,0001.66,0000.68
2022-02-19 05:07:00,,0830.8,5.00,0.00,22.1,21.5,00.0,31.0,23.9,09.4,0000.0,0000.85,0001.43,0000.66
2022-02-19 05:08:00,,0830.7,5.00,0.00,22.1,21.5,00.0,31.0,24.0,09.4,0000.0,0000.82,0001.38,0000.65
2022-02-19 05:09:00,,0830.7,5.00,0.00,22.1,21.5,00.0,31.0,24.0,09.3,0000.0,0000.84,0001.49,0000.62
2022-02-19 05:10:00,,0830.7,5.01,0.00,22.1,21.5,00.0,31.0,24.0,09.3,0000.0,0000.85,0001.66,0000.60
2022-02-19 05:11:00,,0830.7,5.01,0.00,22.1,21.6,00.0,31.0,23.9,09.2,0000.0,0000.86,0001.91,0000.58
2022-02-19 05:12:00,,0830.7,5.00,0.00,22.1,21.6,00.0,31.0,24.0,09.1,0000.0,0000.86,0001.99,0000.57
2022-02-19 05:13:00,,0830.7,5.00,0.00,22.1,21.6,00.0,31.0,24.0,09.1,0000.0,0000.87,0002.06,0000.56
2022-02-19 05:14:00,,0830.7,5.00,0.00,22.2,21.6,00.0,31.0,24.0,09.1,0000.0,0000.87,0002.04,0000.56
2022-02-19 05:15:00,,0830.8,5.00,0.00,22.1,21.6,00.0,31.1,24.0,09.1,0000.0,0000.87,0001.96,0000.57
2022-02-19 05:16:00,,0830.8,5.00,0.00,22.1,21.6,00.0,31.1,24.0,09.1,0000.0,0000.89,0002.01,0000.58
2022-02-19 05:17:00,,0830.8,5.00,0.00,22.1,21.5,00.0,31.1,23.9,09.1,0000.0,0000.93,0002.65,0000.60
2022-02-19 05:18:00,,0830.8,5.00,0.00,22.1,21.5,00.0,31.1,24.0,09.1,0000.0,0000.96,0002.69,0000.63
2022-02-19 05:19:00,,0830.9,5.01,0.00,22.1,21.5,00.0,31.1,23.9,09.1,0000.0,0000.98,0002.81,0000.64
2022-02-19 05:20:00,,0830.9,5.00,0.00,22.1,21.5,00.0,31.1,23.9,09.3,0000.0,0000.97,0002.80,0000.67
2022-02-19 05:21:00,,0830.9,5.00,0.00,22.1,21.5,00.0,31.1,23.9,09.4,0000.0,0000.99,0002.75,0000.71
2022-02-19 05:22:00,,0830.8,4.99,0.00,22.1,21.5,00.0,31.1,23.9,09.4,0000.0,0001.00,0002.40,0000.75
2022-02-19 05:23:00,,0830.8,5.00,0.00,22.1,21.4,00.0,31.1,23.9,09.3,0000.0,0001.05,0002.40,0000.81
2022-02-19 05:24:00,,0830.9,4.99,0.00,22.1,21.4,00.0,31.1,23.9,09.2,0000.0,0001.14,0002.49,0000.87
2022-02-19 05:25:00,,0830.9,5.02,0.00,22.1,21.4,00.0,31.1,23.8,09.6,0000.0,0001.28,0003.23,0000.97
2022-02-19 05:26:00,,0830.8,5.00,0.00,22.0,21.4,00.0,31.1,23.8,09.8,0000.0,0001.56,0005.02,0001.20
2022-02-19 05:27:00,,0830.9,5.00,0.00,22.0,21.4,00.0,31.1,23.8,09.9,0000.0,0001.91,0005.70,0001.48
2022-02-19 05:28:00,,0830.9,5.00,0.00,22.0,21.4,00.0,31.0,23.8,09.9,0000.0,0002.19,0005.54,0001.76
2022-02-19 05:29:00,,0830.8,5.00,0.00,22.0,21.3,00.0,31.0,23.8,09.9,0000.0,0002.49,0005.90,0002.02
2022-02-19 05:30:00,,0830.8,5.02,0.00,22.0,21.2,00.0,31.0,23.8,09.8,0000.0,0002.75,0006.19,0002.25
2022-02-19 05:31:00,,0830.8,5.00,0.00,22.0,21.2,00.0,31.0,23.7,09.8,0000.0,0002.99,0006.48,0002.45
2022-02-19 05:32:00,,0830.8,5.00,0.00,22.0,21.3,00.0,31.0,23.7,09.7,0000.0,0003.16,0006.73,0002.62
2022-02-19 05:33:00,,0830.8,5.01,0.00,22.0,21.3,00.0,31.0,23.7,09.6,0000.0,0003.22,0007.03,0002.71
2022-02-19 05:34:00,,0830.7,4.99,0.00,21.9,21.2,00.0,31.0,23.7,09.6,0000.0,0003.28,0007.21,0002.79
2022-02-19 05:35:00,,0830.8,4.99,0.00,21.9,21.2,00.0,31.0,23.7,09.5,0000.0,0003.30,0007.41,0002.81
2022-02-19 05:36:00,,0830.7,5.00,0.00,21.9,21.2,00.0,31.0,23.7,09.4,0000.0,0003.25,0006.70,0002.74
2022-02-19 05:37:00,,0830.7,5.01,0.00,21.9,21.3,00.0,31.0,23.7,09.4,0000.0,0003.14,0005.11,0002.57
2022-02-19 05:38:00,,0830.7,5.00,0.00,21.9,21.3,00.0,31.0,23.7,09.4,0000.0,0002.88,0004.54,0002.35
2022-02-19 05:39:00,,0830.7,5.00,0.00,21.9,21.3,00.0,31.0,23.7,09.4,0000.0,0002.61,0004.13,0002.11
2022-02-19 05:40:00,,0830.7,4.99,0.00,21.9,21.3,00.0,31.0,23.7,09.2,0000.0,0002.30,0003.69,0001.83
2022-02-19 05:41:00,,0830.7,5.01,0.00,21.9,21.3,00.0,30.9,23.8,09.1,0000.0,0002.00,0003.28,0001.58
2022-02-19 05:42:00,,0830.7,5.01,0.00,21.9,21.3,00.0,30.9,23.8,09.2,0000.0,0001.72,0002.85,0001.35
2022-02-19 05:43:00,,0830.7,4.99,0.00,21.9,21.3,00.0,30.9,23.7,09.1,0000.0,0001.47,0002.46,0001.14
2022-02-19 05:44:00,,0830.8,5.00,0.00,21.9,21.3,00.0,30.9,23.7,09.2,0000.0,0001.32,0002.15,0001.01
2022-02-19 05:45:00,,0830.7,5.00,0.00,21.9,21.3,00.0,30.9,23.7,09.3,0000.0,0001.18,0001.89,0000.91
2022-02-19 05:46:00,,0830.7,5.01,0.00,21.9,21.2,00.0,30.9,23.6,09.3,0000.0,0001.04,0001.45,0000.86
2022-02-19 05:47:00,,0830.7,4.99,0.00,21.9,21.2,00.0,30.9,23.6,09.4,0000.0,0001.01,0001.36,0000.84
2022-02-19 05:48:00,,0830.7,4.99,0.00,21.9,21.2,00.0,30.9,23.6,09.3,0000.0,0000.97,0001.31,0000.81
2022-02-19 05:49:00,,0830.7,5.00,0.00,21.9,21.7,00.0,31.0,23.8,09.3,0000.0,0000.93,0001.25,0000.79
2022-02-19 05:50:00,,0830.7,5.00,0.00,22.1,22.5,00.0,31.0,24.0,09.2,0000.0,0000.94,0001.46,0000.81
2022-02-19 05:51:00,,0830.7,4.99,0.00,22.2,22.8,00.0,31.0,24.2,09.2,0000.0,0001.05,0001.59,0000.91
2022-02-19 05:52:00,,0830.7,4.99,0.00,22.2,22.6,00.0,31.0,24.2,09.2,0000.0,0001.18,0001.76,0001.03
2022-02-19 05:53:00,,0830.7,5.01,0.00,22.2,22.4,00.0,31.1,24.2,09.2,0000.0,0001.31,0001.94,0001.15
2022-02-19 05:54:00,,0830.7,5.00,0.00,22.2,22.2,00.0,31.1,24.1,09.2,0000.0,0001.45,0002.09,0001.26
2022-02-19 05:55:00,,0830.6,5.00,0.00,22.2,22.1,00.0,31.1,24.1,09.3,0000.0,0001.61,0002.31,0001.40
2022-02-19 05:56:00,,0830.7,5.00,0.00,22.2,21.9,00.0,31.1,24.0,09.3,0000.0,0001.77,0002.68,0001.52
2022-02-19 05:57:00,,0830.7,4.99,0.00,22.2,21.8,00.0,31.1,24.1,09.3,0000.0,0001.95,0002.97,0001.66
2022-02-19 05:58:00,,0830.7,5.00,0.00,22.2,21.8,00.0,31.1,24.0,09.3,0000.0,0002.08,0003.16,0001.78
2022-02-19 05:59:00,,0830.7,5.00,0.00,22.2,21.7,00.0,31.1,24.0,09.3,0000.0,0002.22,0003.39,0001.90
